KB1ATL Wesley Chapel FL US current weather conditions

sailwx.info

Wind from 062 at 1 knots

Air temperature 23.3° C
Dewpoint 14.1° C

Last reported at 2019-Mar-20 18:53 UTC.
Time now 2019-Mar-22 05:58 UTC

Location: N 28°12' W 082°22'.
View on Google Maps.

See reports from other nearby stations

  
Tides and Currents Weather Stations Pressure Air Temp Water Temp Dewpoint Dewpoint Depression Visibility Wind Speed Wind Dir Waves Ship Positions
date/time (UTC)wind fromknots sea level pressurealtimeterstation pressurevisibilityair tempwater tempwave heightnotes
2019-Mar-20 18:53 062 1 23.3
2019-Mar-20 18:43 092 1 23.3
2019-Mar-20 18:33 044 1 22.8
2019-Mar-20 18:23 014 1 22.8
2019-Mar-20 18:13 336 1 22.8
2019-Mar-20 18:03 046 1 23.3
2019-Mar-20 17:53 067 2 23.3
2019-Mar-20 17:43 049 1 23.3
2019-Mar-20 17:33 063 1 23.3
2019-Mar-20 17:23 355 1 22.8
2019-Mar-20 17:13 024 2 23.3
2019-Mar-20 17:03 034 2 23.3
2019-Mar-20 16:53 012 3 23.3
2019-Mar-20 16:43 087 1 22.8
2019-Mar-20 16:33 009 3 22.2
2019-Mar-20 16:23 041 3 22.2
2019-Mar-20 16:13 061 1 21.7
2019-Mar-20 16:03 011 1 21.1
2019-Mar-20 15:53 045 2 21.7
2019-Mar-20 15:43 061 2 21.1
2019-Mar-20 15:33 055 2 21.1
2019-Mar-20 15:23 360 2 20.6
2019-Mar-20 15:13 040 1 20.0
2019-Mar-20 15:03 346 1 20.0
2019-Mar-20 14:53 065 1 19.4
2019-Mar-20 14:43 030 3 18.9
2019-Mar-20 14:33 034 2 18.9
2019-Mar-20 14:23 355 2 18.9
2019-Mar-20 14:13 048 2 18.3
2019-Mar-20 14:03 036 1 18.3
2019-Mar-20 13:53 018 2 17.8
2019-Mar-20 13:43 034 1 17.8
2019-Mar-20 13:33 012 0 17.8
2019-Mar-20 13:23 053 1 17.2
2019-Mar-20 13:13 024 1 16.7
2019-Mar-20 13:03 054 1 16.7
2019-Mar-20 12:53 090 1 16.1
2019-Mar-20 12:43 030 1 16.1
2019-Mar-20 12:33 076 0 16.1
2019-Mar-20 12:23 051 1 15.6
2019-Mar-20 12:13 017 0 15.6
2019-Mar-20 12:03 021 0 15.6
2019-Mar-20 11:53 039 15.6
2019-Mar-20 11:43 066 0 15.6
2019-Mar-20 11:33 064 0 15.6
2019-Mar-20 11:23 025 15.6
2019-Mar-20 11:13 064 0 15.6
2019-Mar-20 11:03 039 0 15.6
2019-Mar-20 10:53 036 1 15.6
2019-Mar-20 10:43 040 0 15.6
2019-Mar-20 10:33 030 1 15.6
2019-Mar-20 10:23 023 1 15.6
2019-Mar-20 10:13 079 1 15.6
2019-Mar-20 10:03 034 0 15.6
2019-Mar-20 09:53 083 0 15.6
2019-Mar-20 09:43 018 0 15.6
2019-Mar-20 09:33 028 1 15.6
2019-Mar-20 09:23 037 2 15.6
2019-Mar-20 09:13 036 1 15.6
2019-Mar-20 09:03 042 1 15.6
2019-Mar-20 08:53 037 0 15.6
2019-Mar-20 08:43 039 0 15.6
2019-Mar-20 08:33 078 1 15.6
2019-Mar-20 08:23 021 0 15.6
2019-Mar-20 08:13 028 0 15.6
2019-Mar-20 08:03 078 1 15.6
2019-Mar-20 07:53 082 1 15.6
2019-Mar-20 07:43 041 2 15.6
2019-Mar-20 07:33 011 0 15.6
2019-Mar-20 07:23 042 1 15.6
2019-Mar-20 07:13 042 0 15.6
2019-Mar-20 07:03 011 0 15.6
2019-Mar-20 06:53 042 1 15.6
2019-Mar-20 06:43 026 2 15.6
2019-Mar-20 06:33 028 0 15.6
2019-Mar-20 06:23 019 0 15.0
2019-Mar-20 06:13 060 1 15.0
2019-Mar-20 06:03 089 0 15.0
2019-Mar-20 05:53 017 0 15.0
2019-Mar-20 05:43 063 1 15.0
2019-Mar-20 05:33 027 0 15.0
2019-Mar-20 05:23 355 15.6
2019-Mar-20 05:13 023 1 15.6
2019-Mar-20 05:03 020 0 15.6